Showing default

HORYU 4, 41340

Orbit data source: Space-Track

HORYU 4, 41340 is a payload satellite owned by Kyutech (JP) in LEO that was launched on Wed, 17 Feb 2016 UTC via an H-IIA 202 launch vehicle from the Tanegashima Space Center (TNSTA). Payloads include a variety of satellites, spacecraft, and rockets equipped with specific instruments for various scientific and technological missions. These include communications satellites like Starlink; space stations such as the ISS; scientific satellites like the Hubble; Earth observation satellites from companies like Planet Labs, Umbra, and HawkEye 360; GPS; miniature CubeSats for education and research; and military/defense satellites.

Loading next visibility...
HORYU 4 details
Identifier
41340, 2016-012D
Orbit
LEO
Last TLE update17 hours ago
Origin
Flag of JPKyutech (JP / JPN)
ManufacturerKyutech
MissionOperational Amateur Technology
Bus & MotorHORYU, Unknown motor
Mass10 kg wet, 10 kg dry
Launch date (UTC)
2016-02-17 (9 years ago)
Launch vehicle
H-IIA 202
Launch site
Tanegashima Space Center (TNSTA)
Object type
Payload
Rocket body
Debris
Shape & HBRBox, 0.45 m
Radar Cross Section0.290 m², Medium (>0.1 m² and < 1m²)

Expand to show TLE details & history

TLE from 17 hours ago
0 HORYU 4
1 41340U 16012D   24360.84624353  .00033045  00000-0  12230-2 0  9997
2 41340  30.9991 157.9805 0007822 127.5969 232.5384 15.26462283487351
Epoch: 2024-12-25T20:18Z
Definitive object data (Epoch: 2024-12-25T20:18:35.44Z)
Latitude-0.00006°
Longitude118.4986°
Altitude488.164 km
Speed7.622 km/s
True Right ascension10h 31m 55s
True Declination0° 00' 00"
Sunlit
Object was in full shadow at TLE epoch
Visualization TLE readout
Latitude-22.97058°
Longitude-21.55057°
Altitude490.793 km
Speed7.621 km/s
Apparent Right ascension00h 49m 51s
Apparent Declination-31° 06' 54"
Sunlit
Object is in daylight
Visualization observer readout
Local Sidereal Time12:21:35
Azimuth324.707° NNW
Elevation-79.494°
Doppler factor1
Orbital elements
Apogee altitude495.639 km
Perigee altitude484.894 km
Semi-major axis6,868.404 km
Eccentricity0.0007822
Inclination30.9991°
RAAN157.9805°
Arg. of periapsis127.5969°
True anomaly232.46729°
Mean anomaly232.5384°
Eccentric anomaly232.50284°
Mean motion3.81294 °/min
BSTAR0.001223
Orbital period94.42 mins
Loading maneuver chart data...
Loading historical data...
Loading historical data...
Loading historical data...
Loading historical data...
Loading historical data...
Loading historical data...
Loading historical data...

HORYU 4 Visibility forecast

Observer location: undefined°, undefined

Span
Click to sort rows by Start time (UTC) header in descending order
Start Az.
Max El. time (UTC)
Max El. Az.
Max El.
End time (UTC)
End Az.
4 mins2024-12-26 15:25:58.666Z203.896° SW2024-12-26 15:27:58.666Z168.32° S16.191°2024-12-26 15:29:58.666Z133.203° SE
4 mins2024-12-26 17:05:58.666Z209.007° SW2024-12-26 17:06:58.666Z187.714° SSW19.124°2024-12-26 17:09:58.666Z134.179° SE
|